Regional Weather Roundup
Issued by NWS

Home | Current Version | Previous Version | Graphics & Text | Print | Product List | Glossary On
Versions: 1 2 3 4 5 6 7 8 9 10 11 12 13 14 15 16 17 18 19 20 21 22 23 24 25 26 27 28 29 30 31 32 33 34 35 36 37 38 39 40 41 42 43 44 45 46 47 48 49 50
000
ASUS43 KBIS 050410
RWRND

NORTH DAKOTA REGIONAL WEATHER ROUNDUP
NATIONAL WEATHER SERVICE BISMARCK ND
1000 PM CST WED MAR 04 2015

NOTE: "FAIR" INDICATES FEW OR NO CLOUDS BELOW 12,000 FEET WITH NO
SIGNIFICANT WEATHER AND/OR OBSTRUCTIONS TO VISIBILITY.


NDZ001>003-009>011-017-050500-
NORTHWEST NORTH DAKOTA

CITY           SKY/WX    TMP DP  RH WIND       PRES   REMARKS
WILLISTON        N/A      1  -9  62 S3        30.23S
MINOT          MOCLDY    -7 -15  68 S5        30.28F WCI -18
MINOT AFB      MOCLDY   -10 -16  75 S5        30.28F WCI -22
$$

NDZ018>021-031>035-040>046-050500-
SOUTHWEST NORTH DAKOTA

CITY           SKY/WX    TMP DP  RH WIND       PRES   REMARKS
BISMARCK       CLEAR     -5 -11  75 SE5       30.35R WCI -16
DICKINSON      CLEAR     -2 -10  69 S7        30.18S WCI -15
GARRISON         N/A    -10 -17  71 CALM      30.28S
HETTINGER ARPT CLEAR     -4 -11  72 SE3       30.22S
$$

NDZ004>008-012>016-024-026-027-054-050500-
NORTHEAST NORTH DAKOTA

CITY           SKY/WX    TMP DP  RH WIND       PRES   REMARKS
GRAND FORKS    CLEAR    -10 -16  74 W6        30.40R WCI -23
GRND FRKS AFB  CLEAR    -10 -18  70 W6        30.39R WCI -24
DEVILS LAKE    PTCLDY    -8 -17  65 SW6       30.33R WCI -21
$$

NDZ022-023-025-028>030-036>039-047>053-050500-
SOUTHEAST NORTH DAKOTA

CITY           SKY/WX    TMP DP  RH WIND       PRES   REMARKS
FARGO          CLEAR     -4 -12  68 W8        30.42R WCI -19
JAMESTOWN      CLEAR     -7 -14  71 W6        30.35S WCI -20
$$




USA.gov is the U.S. government's official web portal to all federal, state and local government web resources and services.